Dewpoint
26 26 25 27 28 28 28 28 29 29 30 31 32 33 34 34 30 31 29 30 31 33 37 38 41 48 52 55 58 58 57 56 54 53 54 55 57 58 59 59 59 59 58
25 25 25 27 27 27 27 28 27 28 29 29 30 32 33 32 30 29 28 29 30 31 34 35 38 40 53 55 57 57 57 57 55 52 52 54 55 58 58 58 59 59 59
24 24 24 25 25 26 27 27 27 27 28 27 27 29 29 29 31 28 28 27 28 30 31 33 34 34 43 53 55 55 56 55 55 53 52 53 54 55 56 57 57 57 58
24 22 22 24 25 26 26 26 26 27 27 26 25 27 26 26 29 27 27 26 26 28 29 32 32 32 31 33 44 50 55 55 55 54 53 52 52 53 55 54 53 56 56
22 22 22 23 24 26 25 25 25 26 27 24 25 25 24 24 24 24 27 26 26 26 27 29 32 31 31 31 32 34 39 51 54 54 53 50 51 50 52 54 53 53 54
21 20 22 22 23 25 24 24 24 25 26 23 23 25 22 24 22 23 26 26 25 25 25 26 28 29 29 30 31 32 33 35 44 50 50 50 50 51 51 52 53 51 50
19 20 21 22 22 23 24 22 23 23 24 24 22 23 21 22 21 22 25 24 25 25 25 25 26 27 28 30 30 31 32 33 33 36 41 41 42 39 42 47 49 50 51
19 20 20 21 22 22 22 22 23 23 23 23 22 22 20 19 20 22 24 21 22 25 26 26 26 26 28 30 30 29 30 31 32 33 34 34 35 36 36 38 39 40 43
18 19 20 21 21 22 22 21 22 22 22 22 22 20 18 18 19 23 21 21 20 21 23 26 27 27 28 30 29 28 29 29 31 31 32 33 34 35 36 35 37 40 43
19 20 20 20 20 21 22 21 22 22 21 21 23 18 17 18 19 21 19 20 20 19 21 22 25 25 26 27 26 25 24 25 27 29 29 31 33 35 36 37 37 37 41
19 20 19 20 20 21 21 21 20 20 20 20 19 17 16 18 20 21 18 18 20 18 19 20 22 24 24 24 24 24 24 24 24 26 27 28 29 31 31 32 34 34 36
19 18 18 19 19 20 20 19 18 19 19 19 17 16 16 18 18 19 18 16 18 17 17 19 19 19 20 21 23 23 23 23 22 22 22 23 24 25 26 28 31 33 35
17 17 17 18 18 19 19 19 19 19 19 18 17 15 15 17 18 18 17 16 16 16 15 15 15 16 16 18 18 20 22 20 20 19 19 20 22 24 25 27 30 32 34
17 16 16 16 18 17 17 18 18 18 18 18 16 15 15 16 18 19 19 17 16 15 13 13 12 13 13 14 15 16 18 19 19 18 19 20 21 21 22 24 26 29 31
16 15 15 15 15 16 16 16 18 18 19 18 18 17 16 15 18 18 16 15 15 13 11 11 10 9 10 11 11 12 14 15 16 18 17 18 18 19 20 21 23 25 28
15 14 14 15 14 14 15 14 15 18 17 16 15 15 16 15 15 15 14 13 13 11 8 8 7 7 8 9 9 10 11 12 14 15 15 16 17 18 18 19 21 22 24
12 13 13 13 12 13 14 13 12 12 15 15 14 13 13 13 13 13 13 11 10 8 7 6 6 6 7 7 8 9 9 11 13 13 14 16 17 17 17 18 19 20 22
10 11 12 11 11 12 12 12 14 10 8 9 11 11 11 11 12 11 11 6 5 5 5 5 4 5 6 6 7 7 8 9 10 11 12 14 15 15 17 17 18 18 19
10 10 11 10 10 11 11 12 13 12 9 8 7 8 8 8 8 8 7 4 3 4 4 4 4 4 5 5 6 6 7 8 9 10 11 12 13 14 15 17 18 18 19
10 10 10 10 10 10 9 10 11 11 9 7 7 8 7 5 4 3 4 4 3 3 3 3 4 4 4 5 5 6 6 7 8 9 10 11 12 13 14 15 16 17 18
10 8 9 9 9 9 8 9 9 9 9 7 6 6 7 6 4 4 4 4 3 3 3 3 3 3 4 4 5 5 5 6 8 9 9 10 12 12 14 16 17 18 19
8 8 8 8 8 7 6 7 7 7 8 6 5 5 5 5 5 5 5 5 5 5 4 3 3 3 4 4 4 4 5 6 7 8 9 10 11 13 14 15 16 18 19
7 6 6 7 6 6 5 4 5 6 7 5 4 4 4 4 4 5 5 6 6 5 5 4 3 3 4 4 5 5 5 6 7 8 9 10 11 13 14 15 16 18 19
7 6 6 5 5 5 4 3 3 5 4 3 2 3 3 4 4 4 4 5 5 5 6 5 4 4 3 3 4 6 7 7 8 8 10 11 12 13 14 15 16 18 20
6 5 5 4 4 4 3 3 3 3 3 3 2 2 3 3 3 3 3 4 4 4 4 5 5 4 4 3 4 5 6 6 6 8 11 12 12 12 13 14 16 17 19
6 5 4 4 4 3 3 2 2 2 3 2 2 2 2 2 3 2 3 3 3 4 4 5 4 4 4 4 5 7 5 5 5 7 10 11 11 11 12 13 15 17 18
Wind_Speed
13 13 16 16 15 15 16 18 18 19 20 20 21 22 23 19 21 22 26 25 27 28 27 29 31 31 30 30 24 25 24 23 22 9 19 25 20 21 19 20 22 22 23
14 14 15 14 15 16 16 17 19 20 20 20 21 21 21 19 19 22 26 27 26 29 28 29 30 28 30 31 24 26 24 23 20 20 14 14 16 21 21 19 19 18 20
15 15 15 15 16 17 17 18 19 19 19 20 21 20 22 22 21 22 24 26 25 26 27 26 28 28 20 20 23 20 20 18 19 15 13 11 9 8 14 12 16 17 16
15 16 16 16 17 17 17 18 19 19 19 20 20 19 20 20 19 24 26 26 24 25 26 25 20 26 26 25 10 4 14 18 15 14 11 9 6 7 12 16 14 14 18
15 15 16 17 16 16 17 18 19 18 18 19 19 18 20 19 19 28 27 24 24 24 24 24 19 22 27 24 16 18 11 5 13 15 13 8 12 9 17 12 15 12 14
15 16 16 17 17 16 18 19 19 19 19 18 19 19 21 17 27 31 31 22 22 22 23 22 23 25 27 25 21 21 17 10 3 9 9 15 13 8 8 16 13 12 12
14 15 16 16 17 17 17 18 19 19 20 18 19 19 21 19 28 31 33 19 18 19 21 22 20 20 24 22 19 20 17 18 15 11 4 6 5 6 2 2 5 7 9
14 15 16 17 17 17 17 18 18 18 19 18 18 18 20 19 28 30 33 21 18 18 18 19 20 23 23 22 16 17 14 14 17 10 7 7 6 6 5 4 3 5 5
14 15 16 16 17 17 18 19 18 18 19 18 18 18 21 21 28 31 30 21 21 21 19 18 22 21 29 27 18 15 10 14 18 14 13 11 8 7 5 4 6 6 6
15 16 16 16 16 16 17 18 17 16 17 17 16 18 21 20 26 31 31 21 22 21 19 19 20 24 26 27 18 18 20 12 14 18 17 10 10 9 8 1 6 9 5
15 15 15 15 15 15 16 15 16 17 17 17 14 17 18 20 22 29 32 22 22 22 19 20 21 28 26 27 24 18 16 16 17 13 10 9 11 12 12 11 8 5 5
14 15 15 15 15 15 15 15 15 16 16 17 16 17 17 17 23 26 29 28 26 19 20 18 19 25 26 26 23 24 19 16 11 11 12 14 14 13 13 13 12 10 9
14 15 15 16 15 14 15 15 14 14 14 16 15 17 18 17 16 23 24 27 26 18 17 20 25 24 23 19 20 20 14 12 13 14 15 13 11 11 13 12 10 10 11
13 16 15 17 17 15 14 13 12 14 15 14 15 17 18 17 17 18 17 17 21 19 19 17 19 19 16 14 16 18 15 16 17 15 14 13 12 12 11 11 11 11 9
12 14 15 14 16 16 15 14 13 13 15 16 15 15 18 19 20 24 25 20 20 19 18 16 19 20 19 20 20 19 17 18 16 16 15 14 14 13 11 12 9 11 7
12 13 14 14 15 14 14 17 18 15 17 17 20 19 17 22 24 25 25 21 22 22 15 17 18 18 18 19 19 19 17 19 19 18 17 16 17 17 16 14 10 9 10
12 12 13 14 14 14 15 14 15 15 14 17 20 21 24 25 24 23 24 18 19 17 15 16 17 18 20 20 19 19 20 19 19 17 16 15 14 14 14 15 13 11 11
14 14 15 14 14 14 15 14 12 14 16 17 15 20 24 25 23 23 24 16 16 16 14 13 15 16 17 17 18 19 19 18 17 16 15 14 14 14 14 14 13 13 13
14 14 15 15 15 15 14 14 13 12 14 15 14 15 18 21 19 19 19 14 14 16 16 15 14 14 15 16 16 16 16 16 17 17 16 15 15 14 14 13 14 14 15
13 13 13 13 14 14 14 14 14 13 15 16 15 15 15 16 17 17 15 14 14 14 15 15 15 14 14 15 15 16 15 15 16 16 17 17 16 15 15 16 14 14 14
11 13 13 12 13 13 12 12 13 13 13 15 16 16 17 14 14 13 14 15 15 14 15 14 15 15 15 17 17 17 18 18 17 18 18 18 18 18 17 15 15 14 14
10 10 11 11 11 13 14 13 13 13 13 14 14 15 17 12 12 13 13 14 13 13 12 13 13 13 14 16 17 17 17 18 19 19 20 19 19 18 17 17 16 15 14
9 11 11 11 11 12 14 14 13 13 12 16 16 15 14 14 14 14 15 13 14 14 14 13 14 15 15 16 15 14 17 18 18 18 18 18 18 18 17 16 16 15 13
9 10 10 10 11 12 13 14 14 12 14 15 17 16 14 14 13 14 14 14 14 14 13 13 13 15 18 18 17 17 18 18 18 17 19 17 17 17 15 15 15 16 13
8 10 10 10 10 11 12 13 14 14 14 15 16 15 14 14 14 14 14 13 14 14 15 14 13 17 18 20 20 23 24 24 22 21 17 15 16 17 16 14 15 13 10
6 9 9 10 11 11 11 12 13 13 13 14 15 16 15 15 13 13 14 15 15 15 15 14 16 20 20 17 20 24 24 24 22 23 17 14 15 15 15 15 16 12 10
Wind_Direction
345 342 342 338 337 338 336 334 338 330 331 333 333 331 326 337 339 336 332 325 323 315 310 313 304 278 251 241 214 205 200 202 216 191 202 202 195 209 219 212 214 212 219
344 341 336 337 339 341 340 335 337 334 335 332 334 336 336 341 339 340 334 329 327 323 317 325 328 327 251 233 212 204 198 199 207 206 182 187 201 203 212 208 211 214 215
346 342 341 342 342 340 339 338 336 333 333 339 335 339 340 343 332 343 334 330 327 325 325 325 342 343 339 247 210 207 199 193 198 192 187 191 193 184 210 212 208 209 208
347 345 343 344 339 338 339 339 335 333 334 337 339 338 338 339 333 342 334 334 331 332 333 328 356 348 0 349 15 186 190 186 178 187 189 198 192 186 189 206 210 208 218
344 341 343 340 339 338 342 339 337 335 335 337 334 335 341 341 337 340 337 336 333 336 336 339 336 350 2 1 3 16 9 181 196 195 197 170 192 192 204 203 205 205 224
346 341 341 340 341 344 341 343 338 337 333 338 338 336 342 338 339 341 343 338 334 335 337 339 339 354 349 359 1 31 24 29 347 176 175 190 200 202 173 204 202 196 224
346 340 339 341 343 345 341 343 339 338 334 335 337 339 340 338 343 341 343 339 330 332 339 336 340 337 344 350 0 28 15 28 27 356 145 118 102 45 15 181 196 190 206
345 339 339 341 342 341 342 343 339 336 333 332 335 341 340 341 345 342 346 340 339 338 335 339 339 341 340 348 6 16 14 14 13 348 12 40 42 6 0 318 345 299 293
345 339 337 339 339 341 342 339 338 336 333 334 335 345 344 343 346 347 352 346 344 346 346 344 358 360 357 4 22 19 8 21 359 329 17 12 12 357 323 318 277 239 252
342 336 335 339 339 338 339 337 334 334 336 333 341 348 344 343 344 353 356 351 346 349 349 350 354 7 6 11 21 12 17 354 325 352 10 356 20 12 8 322 265 256 234
336 335 338 338 337 341 337 338 338 339 339 336 354 347 348 348 345 355 358 357 352 346 347 351 348 359 8 12 16 19 8 5 352 351 334 7 25 20 15 359 338 321 253
338 341 340 341 341 342 340 343 344 340 342 341 355 350 349 347 350 356 358 358 357 352 346 345 348 360 5 7 10 7 3 15 1 3 4 16 10 1 350 328 312 300 269
344 343 342 342 342 342 343 345 341 341 341 345 356 351 346 345 346 357 359 359 358 357 351 351 358 7 6 1 3 5 7 8 11 14 12 360 349 335 331 328 319 320 300
340 342 341 343 344 341 343 340 337 342 340 348 354 352 345 344 348 358 359 357 358 357 353 354 356 360 4 357 359 4 4 7 7 4 356 347 345 350 345 337 332 337 320
341 341 340 337 338 335 339 335 334 341 346 356 355 354 349 348 353 357 0 1 4 359 353 1 8 6 358 359 1 6 5 4 358 355 351 353 355 346 345 338 338 331 322
346 346 340 339 340 337 340 337 342 358 2 5 4 5 355 350 355 359 5 6 10 6 9 6 360 358 359 358 355 352 354 356 355 352 352 350 344 340 340 337 342 336 323
356 348 347 348 345 344 342 339 339 341 4 11 8 6 1 356 358 2 4 9 13 17 17 4 358 354 351 351 352 352 348 345 343 345 341 338 336 325 333 336 338 333 320
3 359 355 348 347 344 342 339 339 2 3 358 360 5 1 359 3 7 10 8 9 13 10 2 354 348 346 346 344 341 338 338 341 338 332 329 323 326 329 328 327 322 317
7 358 353 354 353 348 346 345 347 353 6 359 353 2 357 358 3 7 13 18 360 358 356 352 349 346 341 337 334 330 332 330 327 326 325 326 325 326 320 313 311 309 309
2 359 1 360 356 353 351 351 350 353 1 6 4 354 347 1 3 357 359 0 358 352 347 345 342 339 336 335 332 330 329 330 330 330 328 325 322 319 315 313 312 307 299
0 0 1 6 3 356 354 353 351 351 360 351 352 346 351 355 350 350 348 351 350 346 343 341 337 335 335 336 335 333 333 330 329 328 327 324 322 320 317 311 307 303 295
11 7 6 7 0 3 1 358 358 355 358 357 349 347 349 351 349 344 344 344 339 337 336 333 331 330 330 330 329 327 328 325 325 326 325 322 319 316 316 317 312 308 303
18 16 12 7 6 4 8 5 0 359 351 354 352 350 349 349 347 347 344 339 339 335 334 335 334 333 334 331 326 321 322 321 318 314 314 315 313 315 318 315 316 314 313
19 16 11 4 5 5 5 3 1 356 358 355 353 349 346 345 344 344 344 341 342 339 336 334 330 331 331 334 331 330 328 327 325 317 318 316 317 321 320 319 323 324 322
10 7 4 1 360 359 360 0 357 355 349 352 352 351 345 342 342 342 340 339 339 339 340 339 337 336 334 330 330 332 334 333 332 328 327 323 323 328 329 327 332 335 340
357 355 351 350 353 353 353 352 346 346 348 345 344 346 343 344 338 340 341 340 340 337 338 340 341 339 337 336 335 338 337 336 337 335 334 334 338 341 342 342 346 350 350